Time,TemperatureF,DewpointF,PressureIn,WindDirection,WindDirectionDegrees,WindSpeedMPH,WindSpeedGustMPH,Humidity,HourlyPrecipIn,Conditions,Clouds,dailyrainin,SoftwareType,DateUTC
2013-02-09 00:01:00,15.0,11.0,29.88,WNW,286,1.0,2.0,82,0.00,,,0.00,,2013-02-09 07:01:00,
2013-02-09 00:11:00,15.0,11.0,29.88,WNW,286,1.0,2.0,82,0.00,,,0.00,,2013-02-09 07:11:00,
2013-02-09 00:21:00,15.0,11.0,29.88,WNW,286,1.0,2.0,82,0.00,,,0.00,,2013-02-09 07:21:00,
2013-02-09 00:31:00,15.0,11.0,29.88,WNW,286,1.0,2.0,82,0.00,,,0.00,,2013-02-09 07:31:00,
2013-02-09 00:42:00,15.0,11.0,29.88,WNW,286,1.0,2.0,82,0.00,,,0.00,,2013-02-09 07:42:00,
2013-02-09 00:52:00,14.0,10.0,29.88,WNW,286,2.0,3.0,83,0.00,,,0.00,,2013-02-09 07:52:00,
2013-02-09 01:01:00,15.0,11.0,29.88,WNW,286,1.0,3.0,84,0.00,,,0.00,,2013-02-09 08:01:00,
2013-02-09 01:11:00,15.0,11.0,29.88,WNW,286,1.0,3.0,84,0.00,,,0.00,,2013-02-09 08:11:00,
2013-02-09 01:21:00,16.0,12.0,29.87,WNW,286,1.0,3.0,85,0.00,,,0.00,,2013-02-09 08:21:00,
2013-02-09 01:31:00,16.0,12.0,29.87,WNW,286,1.0,3.0,85,0.00,,,0.00,,2013-02-09 08:31:00,
2013-02-09 01:42:00,16.0,12.0,29.87,WNW,286,1.0,3.0,85,0.00,,,0.00,,2013-02-09 08:42:00,
2013-02-09 01:52:00,16.0,12.0,29.87,WNW,286,1.0,3.0,85,0.00,,,0.00,,2013-02-09 08:52:00,
2013-02-09 02:03:00,16.0,12.0,29.87,WNW,286,2.0,3.0,85,0.00,,,0.00,,2013-02-09 09:03:00,
2013-02-09 02:11:00,16.0,12.0,29.87,WNW,286,2.0,3.0,85,0.00,,,0.00,,2013-02-09 09:11:00,
2013-02-09 02:21:00,16.0,12.0,29.87,WNW,286,2.0,3.0,85,0.00,,,0.00,,2013-02-09 09:21:00,
2013-02-09 02:31:00,15.0,11.0,29.87,WNW,286,0.0,0.0,84,0.00,,,0.00,,2013-02-09 09:31:00,
2013-02-09 02:41:00,15.0,11.0,29.87,WNW,286,0.0,0.0,84,0.00,,,0.00,,2013-02-09 09:41:00,
2013-02-09 02:52:00,15.0,11.0,29.87,WNW,286,0.0,0.0,84,0.00,,,0.00,,2013-02-09 09:52:00,
2013-02-09 03:01:00,15.0,11.0,29.87,WNW,286,0.0,0.0,84,0.00,,,0.00,,2013-02-09 10:01:00,
2013-02-09 03:11:00,15.0,11.0,29.87,WNW,286,0.0,0.0,84,0.00,,,0.00,,2013-02-09 10:11:00,
2013-02-09 03:21:00,12.0,8.0,29.86,WNW,286,0.0,2.0,84,0.00,,,0.00,,2013-02-09 10:21:00,
2013-02-09 03:32:00,12.0,8.0,29.86,WNW,286,1.0,2.0,83,0.00,,,0.00,,2013-02-09 10:32:00,
2013-02-09 03:42:00,12.0,8.0,29.86,WNW,286,1.0,2.0,83,0.00,,,0.00,,2013-02-09 10:42:00,
2013-02-09 03:52:00,12.0,8.0,29.86,WNW,286,1.0,2.0,83,0.00,,,0.00,,2013-02-09 10:52:00,
2013-02-09 04:01:00,11.0,7.0,29.85,WNW,286,0.0,0.0,83,0.00,,,0.00,,2013-02-09 11:01:00,
2013-02-09 04:11:00,11.0,7.0,29.85,WNW,286,0.0,0.0,83,0.00,,,0.00,,2013-02-09 11:11:00,
2013-02-09 04:22:00,10.0,6.0,29.85,WNW,286,0.0,0.0,83,0.00,,,0.00,,2013-02-09 11:22:00,
2013-02-09 04:32:00,10.0,6.0,29.85,WNW,286,0.0,0.0,83,0.00,,,0.00,,2013-02-09 11:32:00,
2013-02-09 04:41:00,10.0,6.0,29.85,WNW,286,0.0,0.0,83,0.00,,,0.00,,2013-02-09 11:41:00,
2013-02-09 04:52:00,10.0,6.0,29.85,WNW,286,2.0,3.0,83,0.00,,,0.00,,2013-02-09 11:52:00,
2013-02-09 05:02:00,9.0,5.0,29.85,WNW,286,1.0,3.0,82,0.00,,,0.00,,2013-02-09 12:02:00,
2013-02-09 05:11:00,9.0,5.0,29.85,WNW,286,1.0,3.0,82,0.00,,,0.00,,2013-02-09 12:11:00,
2013-02-09 05:21:00,9.0,5.0,29.85,WNW,286,1.0,3.0,82,0.00,,,0.00,,2013-02-09 12:21:00,
2013-02-09 05:32:00,8.0,4.0,29.85,WNW,286,0.0,0.0,82,0.00,,,0.00,,2013-02-09 12:32:00,
2013-02-09 05:42:00,8.0,4.0,29.85,WNW,286,0.0,0.0,82,0.00,,,0.00,,2013-02-09 12:42:00,
2013-02-09 05:52:00,8.0,4.0,29.85,WNW,286,0.0,0.0,82,0.00,,,0.00,,2013-02-09 12:52:00,
2013-02-09 06:02:00,10.0,6.0,29.85,WNW,288,3.0,5.0,84,0.00,,,0.00,,2013-02-09 13:02:00,
2013-02-09 06:11:00,10.0,6.0,29.85,WNW,288,3.0,5.0,84,0.00,,,0.00,,2013-02-09 13:11:00,
2013-02-09 06:22:00,10.0,6.0,29.84,WNW,288,1.0,6.0,84,0.00,,,0.00,,2013-02-09 13:22:00,
2013-02-09 06:32:00,10.0,6.0,29.84,WNW,288,1.0,3.0,84,0.00,,,0.00,,2013-02-09 13:32:00,
2013-02-09 06:42:00,10.0,6.0,29.84,WNW,288,1.0,3.0,84,0.00,,,0.00,,2013-02-09 13:42:00,
2013-02-09 06:52:00,10.0,6.0,29.83,WNW,288,1.0,3.0,83,0.00,,,0.00,,2013-02-09 13:52:00,
2013-02-09 07:01:00,10.0,6.0,29.83,WNW,288,1.0,3.0,83,0.00,,,0.00,,2013-02-09 14:01:00,
2013-02-09 07:11:00,10.0,6.0,29.83,WNW,288,1.0,3.0,83,0.00,,,0.00,,2013-02-09 14:11:00,
2013-02-09 07:21:00,9.0,5.0,29.84,WNW,288,0.0,2.0,83,0.00,,,0.00,,2013-02-09 14:21:00,
2013-02-09 07:31:00,9.0,5.0,29.84,WNW,288,0.0,0.0,83,0.00,,,0.00,,2013-02-09 14:31:00,
2013-02-09 07:42:00,9.0,5.0,29.84,WNW,288,0.0,0.0,83,0.00,,,0.00,,2013-02-09 14:42:00,
2013-02-09 07:52:00,9.0,5.0,29.83,WNW,288,0.0,2.0,83,0.00,,,0.00,,2013-02-09 14:52:00,
2013-02-09 08:02:00,9.0,5.0,29.83,WNW,288,1.0,2.0,83,0.00,,,0.00,,2013-02-09 15:02:00,
2013-02-09 08:11:00,9.0,5.0,29.83,WNW,288,1.0,2.0,83,0.00,,,0.00,,2013-02-09 15:11:00,
2013-02-09 08:21:00,10.0,6.0,29.83,WNW,288,0.0,3.0,84,0.00,,,0.00,,2013-02-09 15:21:00,
2013-02-09 08:32:00,10.0,6.0,29.83,WNW,288,0.0,3.0,84,0.00,,,0.00,,2013-02-09 15:32:00,
2013-02-09 08:42:00,10.0,6.0,29.83,WNW,288,0.0,3.0,84,0.00,,,0.00,,2013-02-09 15:42:00,
2013-02-09 08:52:00,10.0,6.0,29.83,WNW,288,1.0,2.0,84,0.00,,,0.00,,2013-02-09 15:52:00,
2013-02-09 09:01:00,11.0,7.0,29.83,WNW,288,0.0,2.0,84,0.00,,,0.00,,2013-02-09 16:01:00,
2013-02-09 09:11:00,11.0,7.0,29.83,WNW,288,0.0,2.0,84,0.00,,,0.00,,2013-02-09 16:11:00,
2013-02-09 09:22:00,11.0,7.0,29.83,WNW,288,0.0,3.0,85,0.00,,,0.00,,2013-02-09 16:22:00,
2013-02-09 09:31:00,12.0,8.0,29.83,WNW,288,1.0,3.0,85,0.00,,,0.00,,2013-02-09 16:31:00,
2013-02-09 09:41:00,12.0,8.0,29.83,WNW,288,1.0,3.0,85,0.00,,,0.00,,2013-02-09 16:41:00,
2013-02-09 09:52:00,12.0,8.0,29.83,WNW,288,1.0,3.0,85,0.00,,,0.00,,2013-02-09 16:52:00,
2013-02-09 10:01:00,12.0,8.0,29.83,WNW,288,2.0,3.0,85,0.00,,,0.00,,2013-02-09 17:01:00,
2013-02-09 10:11:00,12.0,8.0,29.83,WNW,288,2.0,3.0,85,0.00,,,0.00,,2013-02-09 17:11:00,
2013-02-09 10:21:00,12.0,8.0,29.83,WNW,288,2.0,3.0,85,0.00,,,0.00,,2013-02-09 17:21:00,
2013-02-09 10:32:00,14.0,10.0,29.83,WNW,288,1.0,3.0,85,0.00,,,0.00,,2013-02-09 17:32:00,
2013-02-09 10:41:00,14.0,10.0,29.83,WNW,288,1.0,3.0,85,0.00,,,0.00,,2013-02-09 17:41:00,
2013-02-09 10:52:00,14.0,11.0,29.83,WNW,288,1.0,3.0,86,0.00,,,0.00,,2013-02-09 17:52:00,
2013-02-09 11:02:00,14.0,11.0,29.83,WNW,288,1.0,3.0,86,0.00,,,0.00,,2013-02-09 18:02:00,
2013-02-09 11:12:00,14.0,11.0,29.83,WNW,288,1.0,3.0,86,0.00,,,0.00,,2013-02-09 18:12:00,
2013-02-09 11:23:00,16.0,13.0,29.83,WNW,288,2.0,3.0,86,0.00,,,0.00,,2013-02-09 18:23:00,
2013-02-09 11:32:00,16.0,13.0,29.83,WNW,288,2.0,3.0,86,0.00,,,0.00,,2013-02-09 18:32:00,
2013-02-09 11:42:00,16.0,13.0,29.83,WNW,288,2.0,3.0,86,0.00,,,0.00,,2013-02-09 18:42:00,
2013-02-09 11:52:00,18.0,15.0,29.82,WNW,288,0.0,3.0,87,0.00,,,0.00,,2013-02-09 18:52:00,
2013-02-09 12:01:00,18.0,15.0,29.82,WNW,288,0.0,3.0,87,0.00,,,0.00,,2013-02-09 19:01:00,
2013-02-09 12:11:00,18.0,15.0,29.82,WNW,288,0.0,3.0,87,0.00,,,0.00,,2013-02-09 19:11:00,
2013-02-09 12:22:00,20.0,17.0,29.82,WNW,288,2.0,3.0,88,0.00,,,0.00,,2013-02-09 19:22:00,
2013-02-09 12:31:00,21.0,18.0,29.80,WNW,288,0.0,3.0,88,0.00,,,0.00,,2013-02-09 19:31:00,
2013-02-09 12:42:00,21.0,18.0,29.80,WNW,288,0.0,3.0,88,0.00,,,0.00,,2013-02-09 19:42:00,
2013-02-09 12:52:00,22.0,19.0,29.79,WNW,288,0.0,3.0,89,0.00,,,0.00,,2013-02-09 19:52:00,
2013-02-09 13:01:00,22.0,19.0,29.79,WNW,288,0.0,3.0,89,0.00,,,0.00,,2013-02-09 20:01:00,
2013-02-09 13:11:00,22.0,19.0,29.79,WNW,288,0.0,3.0,89,0.00,,,0.00,,2013-02-09 20:11:00,
2013-02-09 13:21:00,24.0,21.0,29.78,West,274,2.0,3.0,89,0.00,,,0.00,,2013-02-09 20:21:00,
2013-02-09 13:31:00,24.0,21.0,29.79,West,274,1.0,3.0,89,0.00,,,0.00,,2013-02-09 20:31:00,
2013-02-09 13:42:00,24.0,21.0,29.79,West,274,1.0,3.0,89,0.00,,,0.00,,2013-02-09 20:42:00,
2013-02-09 13:52:00,27.0,23.0,29.78,WNW,296,2.0,7.0,84,0.00,,,0.00,,2013-02-09 20:52:00,
2013-02-09 14:02:00,27.0,23.0,29.78,WNW,296,2.0,7.0,84,0.00,,,0.00,,2013-02-09 21:02:00,
2013-02-09 14:11:00,27.0,23.0,29.78,WNW,296,2.0,7.0,84,0.00,,,0.00,,2013-02-09 21:11:00,
2013-02-09 14:21:00,28.0,22.0,29.78,West,269,4.0,7.0,77,0.00,,,0.00,,2013-02-09 21:21:00,
2013-02-09 14:31:00,29.0,23.0,29.78,WNW,287,4.0,8.0,77,0.00,,,0.00,,2013-02-09 21:31:00,
2013-02-09 14:42:00,29.0,23.0,29.78,WNW,287,4.0,8.0,77,0.00,,,0.00,,2013-02-09 21:42:00,
2013-02-09 14:52:00,29.0,23.0,29.78,WNW,287,4.0,8.0,77,0.00,,,0.00,,2013-02-09 21:52:00,
2013-02-09 15:01:00,28.0,21.0,29.77,WNW,286,3.0,7.0,76,0.00,,,0.00,,2013-02-09 22:01:00,
2013-02-09 15:11:00,28.0,21.0,29.77,WNW,286,3.0,7.0,76,0.00,,,0.00,,2013-02-09 22:11:00,
2013-02-09 15:21:00,29.0,22.0,29.75,WNW,285,2.0,6.0,75,0.00,,,0.00,,2013-02-09 22:21:00,
2013-02-09 15:32:00,29.0,22.0,29.76,WNW,285,2.0,5.0,74,0.00,,,0.00,,2013-02-09 22:32:00,
2013-02-09 15:42:00,29.0,22.0,29.76,WNW,285,2.0,5.0,74,0.00,,,0.00,,2013-02-09 22:42:00,
2013-02-09 15:52:00,29.0,22.0,29.76,WNW,285,2.0,5.0,74,0.00,,,0.00,,2013-02-09 22:52:00,
2013-02-09 16:01:00,30.0,23.0,29.77,WNW,288,1.0,3.0,74,0.00,,,0.00,,2013-02-09 23:01:00,
2013-02-09 16:11:00,30.0,23.0,29.77,WNW,288,1.0,3.0,74,0.00,,,0.00,,2013-02-09 23:11:00,
2013-02-09 16:21:00,30.0,23.0,29.77,WNW,288,2.0,3.0,74,0.00,,,0.00,,2013-02-09 23:21:00,
2013-02-09 16:32:00,30.0,23.0,29.77,WNW,288,2.0,3.0,74,0.00,,,0.00,,2013-02-09 23:32:00,
2013-02-09 16:42:00,30.0,23.0,29.77,WNW,288,2.0,3.0,74,0.00,,,0.00,,2013-02-09 23:42:00,
2013-02-09 16:52:00,29.0,22.0,29.77,WNW,286,3.0,5.0,74,0.00,,,0.00,,2013-02-09 23:52:00,
2013-02-09 17:02:00,29.0,22.0,29.77,WNW,286,3.0,5.0,74,0.00,,,0.00,,2013-02-10 00:02:00,
2013-02-09 17:12:00,29.0,22.0,29.77,WNW,286,3.0,5.0,74,0.00,,,0.00,,2013-02-10 00:12:00,
2013-02-09 17:21:00,28.0,22.0,29.77,WSW,249,2.0,6.0,77,0.00,,,0.00,,2013-02-10 00:21:00,
2013-02-09 17:32:00,27.0,21.0,29.77,WSW,249,1.0,3.0,77,0.00,,,0.00,,2013-02-10 00:32:00,
2013-02-09 17:42:00,27.0,21.0,29.77,WSW,249,1.0,3.0,77,0.00,,,0.00,,2013-02-10 00:42:00,
2013-02-09 17:52:00,27.0,21.0,29.77,WSW,249,0.0,3.0,78,0.00,,,0.00,,2013-02-10 00:52:00,
2013-02-09 18:01:00,27.0,21.0,29.77,WSW,249,0.0,3.0,78,0.00,,,0.00,,2013-02-10 01:01:00,
2013-02-09 18:12:00,27.0,21.0,29.77,WSW,249,0.0,3.0,78,0.00,,,0.00,,2013-02-10 01:12:00,
2013-02-09 18:21:00,27.0,22.0,29.78,WSW,249,2.0,3.0,80,0.00,,,0.00,,2013-02-10 01:21:00,
2013-02-09 18:31:00,27.0,22.0,29.78,WSW,249,2.0,3.0,80,0.00,,,0.00,,2013-02-10 01:31:00,
2013-02-09 18:42:00,27.0,22.0,29.78,WSW,249,2.0,3.0,80,0.00,,,0.00,,2013-02-10 01:42:00,
2013-02-09 18:52:00,26.0,21.0,29.79,WSW,249,3.0,3.0,81,0.00,,,0.00,,2013-02-10 01:52:00,
2013-02-09 19:01:00,26.0,21.0,29.79,WSW,250,3.0,3.0,81,0.00,,,0.00,,2013-02-10 02:01:00,
2013-02-09 19:11:00,26.0,21.0,29.79,WSW,250,3.0,3.0,81,0.00,,,0.00,,2013-02-10 02:11:00,
2013-02-09 19:22:00,26.0,21.0,29.79,West,278,3.0,5.0,82,0.00,,,0.00,,2013-02-10 02:22:00,
2013-02-09 19:32:00,27.0,22.0,29.79,West,280,6.0,10.0,82,0.00,,,0.00,,2013-02-10 02:32:00,
2013-02-09 19:42:00,27.0,22.0,29.79,West,280,6.0,10.0,82,0.00,,,0.00,,2013-02-10 02:42:00,
2013-02-09 19:52:00,27.0,22.0,29.79,WNW,285,6.0,12.0,81,0.00,,,0.00,,2013-02-10 02:52:00,
2013-02-09 20:01:00,28.0,23.0,29.79,WNW,286,6.0,10.0,81,0.00,,,0.00,,2013-02-10 03:01:00,
2013-02-09 20:11:00,28.0,23.0,29.79,WNW,286,6.0,10.0,81,0.00,,,0.00,,2013-02-10 03:11:00,
2013-02-09 20:21:00,27.0,22.0,29.80,WNW,284,4.0,10.0,81,0.00,,,0.00,,2013-02-10 03:21:00,
2013-02-09 20:32:00,27.0,22.0,29.80,West,280,5.0,12.0,82,0.00,,,0.00,,2013-02-10 03:32:00,
2013-02-09 20:41:00,27.0,22.0,29.80,West,280,5.0,12.0,82,0.00,,,0.00,,2013-02-10 03:41:00,
2013-02-09 20:52:00,27.0,22.0,29.80,West,280,5.0,12.0,82,0.00,,,0.00,,2013-02-10 03:52:00,
2013-02-09 21:01:00,27.0,22.0,29.80,West,280,5.0,12.0,82,0.00,,,0.00,,2013-02-10 04:01:00,
2013-02-09 21:11:00,27.0,22.0,29.80,West,280,5.0,12.0,82,0.00,,,0.00,,2013-02-10 04:11:00,
2013-02-09 21:22:00,27.0,23.0,29.80,West,275,3.0,5.0,83,0.00,,,0.00,,2013-02-10 04:22:00,
2013-02-09 21:32:00,27.0,23.0,29.80,West,275,2.0,3.0,83,0.00,,,0.00,,2013-02-10 04:32:00,
2013-02-09 21:42:00,27.0,23.0,29.80,West,275,2.0,3.0,83,0.00,,,0.00,,2013-02-10 04:42:00,
2013-02-09 21:52:00,27.0,23.0,29.80,West,275,2.0,3.0,83,0.00,,,0.00,,2013-02-10 04:52:00,
2013-02-09 22:01:00,28.0,24.0,29.81,West,275,2.0,3.0,84,0.00,,,0.00,,2013-02-10 05:01:00,
2013-02-09 22:11:00,28.0,24.0,29.81,West,275,2.0,3.0,84,0.00,,,0.00,,2013-02-10 05:11:00,
2013-02-09 22:22:00,28.0,24.0,29.81,West,275,2.0,3.0,84,0.00,,,0.00,,2013-02-10 05:22:00,
2013-02-09 22:31:00,28.0,24.0,29.82,West,273,2.0,5.0,84,0.00,,,0.00,,2013-02-10 05:31:00,
2013-02-09 22:41:00,28.0,24.0,29.82,West,273,2.0,5.0,84,0.00,,,0.00,,2013-02-10 05:41:00,
2013-02-09 22:52:00,28.0,24.0,29.82,West,273,2.0,5.0,84,0.00,,,0.00,,2013-02-10 05:52:00,
2013-02-09 23:01:00,28.0,24.0,29.83,West,273,2.0,3.0,85,0.00,,,0.00,,2013-02-10 06:01:00,
2013-02-09 23:11:00,28.0,24.0,29.83,West,273,2.0,3.0,85,0.00,,,0.00,,2013-02-10 06:11:00,
2013-02-09 23:21:00,28.0,24.0,29.83,West,273,2.0,3.0,85,0.00,,,0.00,,2013-02-10 06:21:00,
2013-02-09 23:32:00,28.0,24.0,29.83,West,273,2.0,3.0,85,0.00,,,0.00,,2013-02-10 06:32:00,
2013-02-09 23:42:00,28.0,24.0,29.83,West,273,2.0,3.0,85,0.00,,,0.00,,2013-02-10 06:42:00,
2013-02-09 23:52:00,28.0,24.0,29.83,West,273,2.0,3.0,85,0.00,,,0.00,,2013-02-10 06:52:00,